When you browse on this site, cookies collect data to enhance your experience and personalize the content and advertising you see.
Visit our Privacy Policy to learn more. By continuing to use the site, you agree to this use of cookies and data.
  • In Czech Republic
  • List of Countries
  • For 7 days
  • Water Temperature
  • Satellite Maps
  • Weather Map
  • Weather Widgets
  • user-avatar
    Login

    Hourly Weather Musajid

    Today, 20 June, Thursday

    Time Temperature Precipitation Wind Pressure Humidity
    00:00 +37°C° 0 mm 9 mps 749 mmHg 35%
    01:00 +37°C° 0 mm 9 mps 749 mmHg 37%
    02:00 +37°C° 0 mm 9 mps 748 mmHg 39%
    03:00 +35°C° 0 mm 9 mps 748 mmHg 40%
    04:00 +37°C° 0 mm 9 mps 749 mmHg 40%
    05:00 +37°C° 0 mm 9 mps 749 mmHg 40%
    06:00 +37°C° 0 mm 9 mps 750 mmHg 41%
    07:00 +39°C° 0 mm 10 mps 750 mmHg 33%
    08:00 +42°C° 0 mm 11 mps 750 mmHg 26%
    09:00 +44°C° 0 mm 11 mps 750 mmHg 18%
    10:00 +46°C° 0 mm 11 mps 750 mmHg 17%
    11:00 +46°C° 0 mm 11 mps 750 mmHg 16%
    12:00 +47°C° 0 mm 11 mps 750 mmHg 14%
    13:00 +47°C° 0 mm 11 mps 749 mmHg 15%
    14:00 +46°C° 0 mm 11 mps 749 mmHg 16%
    15:00 +45°C° 0 mm 10 mps 749 mmHg 16%
    16:00 +44°C° 0 mm 10 mps 749 mmHg 18%
    17:00 +43°C° 0 mm 9 mps 749 mmHg 19%
    18:00 +40°C° 0 mm 9 mps 749 mmHg 21%
    19:00 +39°C° 0 mm 8 mps 749 mmHg 25%
    20:00 +38°C° 0 mm 7 mps 749 mmHg 29%
    21:00 +35°C° 0 mm 6 mps 749 mmHg 33%
    22:00 +35°C° 0 mm 5 mps 749 mmHg 36%
    23:00 +34°C° 0 mm 5 mps 749 mmHg 39%

    Tomorrow, 21 June, Friday

    Time Temperature Precipitation Wind Pressure Humidity
    00:00 +34°C° 0 mm 5 mps 749 mmHg 42%
    01:00 +34°C° 0 mm 5 mps 749 mmHg 46%
    02:00 +33°C° 0 mm 5 mps 749 mmHg 49%
    03:00 +33°C° 0 mm 5 mps 748 mmHg 53%
    04:00 +34°C° 0 mm 6 mps 749 mmHg 51%
    05:00 +34°C° 0 mm 7 mps 749 mmHg 49%
    06:00 +35°C° 0 mm 8 mps 750 mmHg 47%
    07:00 +38°C° 0 mm 8 mps 750 mmHg 38%
    08:00 +41°C° 0 mm 8 mps 750 mmHg 30%
    09:00 +45°C° 0 mm 9 mps 751 mmHg 22%
    10:00 +45°C° 0 mm 9 mps 750 mmHg 22%
    11:00 +47°C° 0 mm 9 mps 750 mmHg 21%
    12:00 +47°C° 0 mm 9 mps 750 mmHg 21%
    13:00 +47°C° 0 mm 9 mps 750 mmHg 21%
    14:00 +47°C° 0 mm 10 mps 749 mmHg 21%
    15:00 +45°C° 0 mm 10 mps 749 mmHg 21%
    16:00 +44°C° 0 mm 9 mps 749 mmHg 22%
    17:00 +43°C° 0 mm 8 mps 749 mmHg 23%
    18:00 +41°C° 0 mm 8 mps 749 mmHg 24%
    19:00 +39°C° 0 mm 6 mps 750 mmHg 29%
    20:00 +37°C° 0 mm 5 mps 750 mmHg 34%
    21:00 +35°C° 0 mm 4 mps 750 mmHg 39%
    22:00 +34°C° 0 mm 4 mps 750 mmHg 40%
    23:00 +34°C° 0 mm 3 mps 750 mmHg 40%

    Day after tomorrow, 22 June, Saturday

    Time Temperature Precipitation Wind Pressure Humidity
    00:00 +33°C° 0 mm 3 mps 750 mmHg 41%
    01:00 +33°C° 0 mm 4 mps 749 mmHg 41%
    02:00 +33°C° 0 mm 5 mps 749 mmHg 41%
    03:00 +33°C° 0 mm 5 mps 749 mmHg 41%
    04:00 +33°C° 0 mm 5 mps 749 mmHg 41%
    05:00 +33°C° 0 mm 4 mps 750 mmHg 41%
    06:00 +33°C° 0 mm 3 mps 750 mmHg 41%
    07:00 +36°C° 0 mm 3 mps 751 mmHg 34%
    08:00 +38°C° 0 mm 3 mps 751 mmHg 28%
    09:00 +42°C° 0 mm 3 mps 751 mmHg 21%
    10:00 +42°C° 0 mm 4 mps 751 mmHg 21%
    11:00 +43°C° 0 mm 4 mps 751 mmHg 21%
    12:00 +44°C° 0 mm 4 mps 751 mmHg 21%
    13:00 +43°C° 0 mm 4 mps 750 mmHg 24%
    14:00 +43°C° 0 mm 5 mps 750 mmHg 28%
    15:00 +42°C° 0 mm 5 mps 749 mmHg 32%
    16:00 +41°C° 0 mm 4 mps 750 mmHg 35%
    17:00 +40°C° 0 mm 4 mps 750 mmHg 38%
    18:00 +38°C° 0 mm 3 mps 750 mmHg 41%
    19:00 +37°C° 0 mm 3 mps 750 mmHg 43%
    20:00 +36°C° 0 mm 4 mps 750 mmHg 46%
    21:00 +36°C° 0 mm 4 mps 751 mmHg 48%
    22:00 +35°C° 0 mm 4 mps 750 mmHg 48%
    23:00 +35°C° 0 mm 4 mps 750 mmHg 47%

    23 June, Sunday

    Time Temperature Precipitation Wind Pressure Humidity
    00:00 +34°C° 0 mm 4 mps 750 mmHg 46%
    01:00 +34°C° 0 mm 3 mps 750 mmHg 48%
    02:00 +34°C° 0 mm 2 mps 749 mmHg 50%
    03:00 +34°C° 0 mm 2 mps 749 mmHg 52%
    04:00 +34°C° 0 mm 2 mps 750 mmHg 52%
    05:00 +34°C° 0 mm 1 mps 750 mmHg 52%
    06:00 +34°C° 0 mm 1 mps 750 mmHg 52%
    07:00 +36°C° 0 mm 1 mps 751 mmHg 45%
    08:00 +39°C° 0 mm 2 mps 751 mmHg 37%
    09:00 +41°C° 0 mm 2 mps 751 mmHg 29%
    10:00 +43°C° 0 mm 3 mps 751 mmHg 27%
    11:00 +44°C° 0 mm 3 mps 751 mmHg 25%
    12:00 +45°C° 0 mm 4 mps 750 mmHg 23%
    13:00 +45°C° 0 mm 4 mps 750 mmHg 25%
    14:00 +45°C° 0 mm 5 mps 750 mmHg 28%
    15:00 +44°C° 0 mm 6 mps 750 mmHg 31%
    16:00 +42°C° 0 mm 5 mps 750 mmHg 34%
    17:00 +41°C° 0 mm 4 mps 750 mmHg 38%
    18:00 +40°C° 0 mm 4 mps 750 mmHg 42%
    19:00 +38°C° 0 mm 4 mps 750 mmHg 43%
    20:00 +37°C° 0 mm 4 mps 750 mmHg 43%
    21:00 +37°C° 0 mm 4 mps 750 mmHg 44%
    22:00 +37°C° 0 mm 4 mps 750 mmHg 41%
    23:00 +37°C° 0 mm 4 mps 750 mmHg 38%

    24 June, Monday

    Time Temperature Precipitation Wind Pressure Humidity
    00:00 +37°C° 0 mm 5 mps 749 mmHg 35%
    01:00 +37°C° 0 mm 4 mps 749 mmHg 34%
    02:00 +37°C° 0 mm 4 mps 749 mmHg 32%
    03:00 +37°C° 0 mm 4 mps 749 mmHg 30%
    04:00 +37°C° 0 mm 4 mps 749 mmHg 30%
    05:00 +37°C° 0 mm 4 mps 749 mmHg 29%
    06:00 +38°C° 0 mm 4 mps 749 mmHg 29%
    07:00 +41°C° 0 mm 4 mps 750 mmHg 26%
    08:00 +43°C° 0 mm 5 mps 750 mmHg 24%
    09:00 +46°C° 0 mm 5 mps 750 mmHg 22%
    10:00 +47°C° 0 mm 5 mps 750 mmHg 20%
    11:00 +48°C° 0 mm 5 mps 750 mmHg 19%
    12:00 +49°C° 0 mm 5 mps 750 mmHg 18%
    13:00 +49°C° 0 mm 5 mps 749 mmHg 18%
    14:00 +49°C° 0 mm 5 mps 749 mmHg 19%
    15:00 +48°C° 0 mm 5 mps 749 mmHg 19%
    16:00 +48°C° 0 mm 5 mps 749 mmHg 19%
    17:00 +47°C° 0 mm 5 mps 749 mmHg 19%
    18:00 +45°C° 0 mm 4 mps 749 mmHg 19%
    19:00 +44°C° 0 mm 4 mps 749 mmHg 20%
    20:00 +42°C° 0 mm 3 mps 749 mmHg 21%
    21:00 +40°C° 0 mm 3 mps 749 mmHg 23%
    22:00 +40°C° 0 mm 3 mps 749 mmHg 22%
    23:00 +40°C° 0 mm 4 mps 749 mmHg 22%

    25 June, Tuesday

    Time Temperature Precipitation Wind Pressure Humidity
    00:00 +40°C° 0 mm 4 mps 749 mmHg 22%
    01:00 +38°C° 0 mm 4 mps 749 mmHg 24%
    02:00 +38°C° 0 mm 3 mps 749 mmHg 26%
    03:00 +37°C° 0 mm 3 mps 749 mmHg 28%
    04:00 +37°C° 0 mm 3 mps 749 mmHg 27%
    05:00 +38°C° 0 mm 3 mps 749 mmHg 27%
    06:00 +38°C° 0 mm 2 mps 750 mmHg 26%
    07:00 +42°C° 0 mm 3 mps 750 mmHg 23%
    08:00 +45°C° 0 mm 3 mps 750 mmHg 19%
    09:00 +47°C° 0 mm 3 mps 750 mmHg 16%
    10:00 +48°C° 0 mm 3 mps 750 mmHg 15%
    11:00 +50°C° 0 mm 4 mps 750 mmHg 15%
    12:00 +51°C° 0 mm 4 mps 749 mmHg 14%
    13:00 +50°C° 0 mm 5 mps 749 mmHg 16%
    14:00 +51°C° 0 mm 6 mps 749 mmHg 17%
    15:00 +49°C° 0 mm 6 mps 748 mmHg 18%
    16:00 +48°C° 0 mm 6 mps 748 mmHg 20%
    17:00 +46°C° 0 mm 6 mps 748 mmHg 21%
    18:00 +45°C° 0 mm 5 mps 748 mmHg 22%
    19:00 +43°C° 0 mm 5 mps 748 mmHg 26%
    20:00 +41°C° 0 mm 5 mps 748 mmHg 29%
    21:00 +40°C° 0 mm 4 mps 749 mmHg 32%
    22:00 +38°C° 0 mm 4 mps 748 mmHg 35%
    23:00 +38°C° 0 mm 4 mps 748 mmHg 38%
    Show more